Orbital Elements at Epoch 2459200.5 (2020-Dec-17.0) TDB
Reference: JPL 24 (heliocentric ecliptic J2000)
Element | Value | Uncertainty (1-sigma) | Units |
e | .136877468442772 | 3.9922e-08 | |
a | 2.375092139870442 | 1.1081e-08 | au |
q | 2.04999554044665 | 9.4775e-08 | au |
i | 12.23769093591885 | 4.8058e-06 | deg |
node | 200.0615950427347 | 1.6761e-05 | deg |
peri | 132.9209757535699 | 2.5147e-05 | deg |
M | 291.4723812225996 | 2.2683e-05 | deg |
tp | 2459454.996761798597 (2021-Aug-28.49676180) | 8.5325e-05 | TDB |
period | 1336.962174989648 3.66 | 9.3565e-06 2.562e-08 | d yr |
n | .2692671541008911 | 1.8844e-09 | deg/d |
Q | 2.700188739294235 | 1.2598e-08 | au |
|
| | Orbit Determination Parameters
Additional Information
|